Terminal Aerodrome Forecast
Issued by NWS

Home | Current Version | Previous Version | Text Only | Print | Product List | Glossary On
Versions: 1 2 3 4 5 6 7 8 9 10 11 12 13 14 15 16 17 18 19 20 21 22 23 24 25 26 27 28 29 30 31 32 33 34
000
FTUS42 KJAX 260400 AAA
TAFCRG
TAF AMD
KCRG 260437Z 2605/2624 02012KT 6SM -RA BR OVC003
      TEMPO 2605/2609 3SM -RA BR
     FM260900 31012KT 4SM BR VCSH BKN003
     FM261500 32015G25KT P6SM BKN010
     FM261900 29012G20KT P6SM FEW010=

USA.gov is the U.S. government's official web portal to all federal, state and local government web resources and services.